TimeCST,TemperatureF,Dew PointF,Humidity,Sea Level PressureIn,VisibilityMPH,Wind Direction,Wind SpeedMPH,Gust SpeedMPH,PrecipitationIn,Events,Conditions,WindDirDegrees,DateUTC
12:53 AM,7.0,1.9,80,30.36,10.0,WNW,6.9,-,N/A,,Clear,300,2013-01-14 06:53:00
1:53 AM,7.0,1.9,80,30.38,10.0,WNW,5.8,-,N/A,,Clear,290,2013-01-14 07:53:00
2:53 AM,6.1,1.0,80,30.40,10.0,WSW,4.6,-,N/A,,Clear,250,2013-01-14 08:53:00
3:53 AM,6.1,1.9,83,30.43,10.0,SW,4.6,-,N/A,,Clear,230,2013-01-14 09:53:00
4:53 AM,6.1,1.9,83,30.43,10.0,SW,3.5,-,N/A,,Clear,220,2013-01-14 10:53:00
5:53 AM,6.1,1.9,83,30.45,10.0,SSW,4.6,-,N/A,,Clear,210,2013-01-14 11:53:00
6:53 AM,5.0,1.0,84,30.47,10.0,SW,5.8,-,N/A,,Clear,220,2013-01-14 12:53:00
7:53 AM,6.1,1.9,83,30.48,10.0,Calm,Calm,-,N/A,,Clear,0,2013-01-14 13:53:00
8:53 AM,9.0,3.9,80,30.49,10.0,Calm,Calm,-,N/A,,Clear,0,2013-01-14 14:53:00
9:53 AM,14.0,8.1,77,30.50,10.0,SSW,4.6,-,N/A,,Clear,210,2013-01-14 15:53:00
10:53 AM,19.0,10.0,68,30.50,10.0,SW,10.4,-,N/A,,Clear,220,2013-01-14 16:53:00
11:53 AM,23.0,12.0,63,30.48,10.0,SSW,10.4,-,N/A,,Clear,210,2013-01-14 17:53:00
1:53 PM,26.1,10.9,53,30.42,10.0,West,13.8,-,N/A,,Clear,260,2013-01-14 19:53:00
2:53 PM,27.0,12.0,53,30.43,10.0,West,8.1,-,N/A,,Clear,280,2013-01-14 20:53:00
3:53 PM,27.0,12.9,56,30.43,10.0,West,8.1,-,N/A,,Clear,280,2013-01-14 21:53:00
4:53 PM,24.1,12.9,62,30.43,10.0,West,3.5,-,N/A,,Clear,280,2013-01-14 22:53:00
5:53 PM,21.9,12.9,68,30.43,10.0,Calm,Calm,-,N/A,,Clear,0,2013-01-14 23:53:00
6:53 PM,19.0,12.0,74,30.44,10.0,Calm,Calm,-,N/A,,Clear,0,2013-01-15 00:53:00
7:53 PM,18.0,10.9,74,30.44,10.0,Calm,Calm,-,N/A,,Clear,0,2013-01-15 01:53:00
8:53 PM,19.0,10.9,71,30.43,10.0,South,4.6,-,N/A,,Clear,180,2013-01-15 02:53:00
9:53 PM,16.0,10.0,77,30.42,10.0,South,5.8,-,N/A,,Clear,170,2013-01-15 03:53:00
10:53 PM,15.1,9.0,77,30.42,10.0,SE,3.5,-,N/A,,Clear,140,2013-01-15 04:53:00
11:53 PM,12.9,8.1,81,30.41,10.0,South,3.5,-,N/A,,Clear,170,2013-01-15 05:53:00